GW3041 Weather Reports


Display with metric or nautical units.
time (UTC)temp
F
wind
direction
speed
MPH
gust
MPH
rain 1hr
in
rain 24hr
in
rain mn
in
humidity
%
barometer
mb
20260506001517 53 154 0.0 0.0 0.02 0.55 0.02 95 1010.5
20260506000018 53 154 1.0 2.0 0.02 0.55 0.02 95 1010.6
20260505234513 53 154 0.0 0.0 0.02 0.55 0.02 95 1010.5
20260505233105 53 154 0.0 2.0 0.02 0.55 0.02 95 1010.9
20260505231558 53 154 0.0 0.0 0.00 0.54 0.00 95 1011.0
20260505230104 53 154 0.0 0.0 0.00 0.54 0.00 95 1010.9
20260505224536 53 154 0.0 0.0 0.01 0.54 0.00 95 1010.9
20260505223036 53 154 0.0 0.0 0.02 0.54 0.00 95 1011.0
20260505221517 53 154 0.0 0.0 0.06 0.54 0.00 95 1011.2
20260505220023 53 154 0.0 0.0 0.06 0.54 0.54 94 1011.3
20260505214502 53 154 0.0 0.0 0.05 0.53 0.53 94 1011.4
20260505213102 53 154 0.0 0.0 0.04 0.50 0.50 94 1011.7
20260505211607 53 154 0.0 0.0 0.02 0.48 0.48 94 1011.7
20260505210052 53 154 0.0 0.0 0.03 0.48 0.48 94 1011.7
20260505204540 53 154 0.0 1.0 0.04 0.48 0.48 94 1011.8
20260505203037 53 154 0.0 1.0 0.03 0.46 0.46 94 1011.8
20260505201541 53 154 0.0 0.0 0.04 0.46 0.46 94 1011.8
20260505200014 53 154 0.0 0.0 0.06 0.45 0.45 94 1011.8
20260505194507 53 154 0.0 0.0 0.09 0.44 0.44 94 1011.7
20260505193101 53 154 0.0 0.0 0.08 0.43 0.43 94 1011.6
20260505191600 53 154 0.0 0.0 0.08 0.43 0.43 94 1011.5
20260505190100 53 154 0.0 0.0 0.07 0.40 0.40 93 1011.4
20260505184536 53 154 0.0 0.0 0.06 0.35 0.35 93 1011.4
20260505183044 53 154 0.0 1.0 0.09 0.35 0.35 93 1011.3
20260505181522 53 131 0.0 2.0 0.10 0.35 0.35 93 1011.2
20260505180028 53 156 0.0 0.0 0.09 0.33 0.33 93 1011.2
20260505174506 53 153 0.0 2.0 0.04 0.28 0.28 93 1011.3
20260505173104 53 153 0.0 2.0 0.02 0.26 0.26 93 1011.4
20260505171555 53 142 0.0 0.0 0.02 0.24 0.24 93 1011.3
20260505170056 53 295 0.0 0.0 0.02 0.24 0.24 93 1011.2
20260505164539 53 295 0.0 0.0 0.02 0.24 0.24 93 1011.3
20260505163032 53 295 0.0 0.0 0.02 0.24 0.24 93 1011.4
20260505161522 54 295 0.0 0.0 0.01 0.23 0.23 92 1011.4
20260505153111 54 152 0.0 2.0 0.00 0.22 0.22 91 1011.4
20260505151556 54 152 0.0 2.0 0.00 0.22 0.22 91 1011.5
20260505150107 54 154 0.0 1.0 0.00 0.22 0.22 91 1011.5
20260505124541 55 151 2.0 5.0 0.00 0.21 0.21 89 1012.1
20260505123047 55 144 3.0 5.0 0.01 0.21 0.21 89 1012.2
20260505121533 56 133 2.0 5.0 0.01 0.21 0.21 89 1012.2
20260505120028 56 135 3.0 6.0 0.01 0.21 0.21 89 1012.2
20260505114512 56 147 4.0 8.0 0.01 0.21 0.21 87 1012.3
20260505113008 57 138 3.0 9.0 0.00 0.20 0.20 87 1012.2
20260505111604 57 114 4.0 9.0 0.00 0.20 0.20 88 1012.2
20260505101539 55 151 3.0 7.0 0.00 0.20 0.20 91 1012.5
20260505100031 55 178 3.0 5.0 0.00 0.20 0.20 92 1012.4
20260505094521 55 135 3.0 7.0 0.01 0.20 0.20 92 1012.4
20260505093015 54 108 3.0 6.0 0.03 0.20 0.20 92 1012.5
20260505091506 54 166 4.0 5.0 0.06 0.20 0.20 92 1012.5
20260505090111 54 153 2.0 5.0 0.09 0.20 0.20 92 1012.4
20260505084558 53 121 2.0 6.0 0.13 0.20 0.20 92 1012.4
20260505083052 53 158 2.0 7.0 0.13 0.18 0.18 92 1012.5
20260505081547 53 129 3.0 5.0 0.12 0.15 0.15 92 1012.4
20260505080048 53 114 3.0 6.0 0.09 0.11 0.11 92 1012.5
20260505074522 53 147 2.0 5.0 0.06 0.07 0.07 92 1012.3
20260505073018 53 148 0.0 0.0 0.05 0.05 0.05 92 1012.3
20260505071510 53 148 0.0 0.0 0.03 0.03 0.03 91 1012.4
20260505070003 53 148 0.0 0.0 0.02 0.02 0.02 91 1012.3
20260505064559 54 148 0.0 0.0 0.01 0.01 0.01 90 1012.3
20260505063059 54 148 0.0 2.0 0.00 0.00 0.00 89 1012.2
20260505061546 54 148 0.0 1.0 0.00 0.00 0.00 89 1012.0
20260505060040 53 284 1.0 3.0 0.00 0.00 0.00 89 1011.9
20260505054533 53 317 0.0 0.0 0.00 0.00 0.00 87 1011.8
20260505053025 54 5 0.0 3.0 0.00 0.00 0.00 87 1011.5
20260505051523 54 35 0.0 2.0 0.00 0.00 0.00 85 1011.4
20260505041606 54 109 0.0 1.0 0.00 0.00 0.00 84 1011.0
20260505040056 54 109 0.0 1.0 0.00 0.00 0.00 83 1010.9
20260505034542 54 109 0.0 1.0 0.00 0.00 0.00 82 1010.9
20260505033042 54 109 0.0 1.0 0.00 0.00 0.00 82 1011.1
20260505031540 54 109 0.0 0.0 0.00 0.00 0.00 80 1011.3
20260505030027 54 109 0.0 2.0 0.00 0.00 0.00 80 1011.4
20260505024521 54 10 0.0 1.0 0.00 0.00 0.00 79 1011.7
20260505023013 55 319 0.0 2.0 0.00 0.00 0.00 79 1011.8
20260505021507 55 319 0.0 2.0 0.00 0.00 0.00 77 1012.0
20260505020104 55 319 0.0 2.0 0.00 0.00 0.00 75 1012.0
20260505014616 55 139 0.0 0.0 0.00 0.00 0.00 76 1012.1
20260505013051 56 299 0.0 0.0 0.00 0.00 0.00 72 1012.4
20260505011545 56 320 1.0 2.0 0.00 0.00 0.00 75 1012.5
20260505010037 56 320 0.0 2.0 0.00 0.00 0.00 74 1012.7
20260505004537 56 320 0.0 0.0 0.00 0.00 0.00 72 1013.1
20260505003026 57 320 0.0 3.0 0.00 0.00 0.00 70 1013.3